CW5102 Weather Reports


Display with metric or nautical units.
time (UTC)temp
F
wind
direction
speed
MPH
gust
MPH
rain 1hr
in
rain 24hr
in
rain mn
in
humidity
%
barometer
mb
20260510221203 60 0 2.0 9.0 0.00 0.00 0.00 24 1019.5
20260510220703 60 0 2.0 9.0 0.00 0.00 0.00 23 1019.5
20260510215703 60 167 2.0 10.0 0.00 0.00 0.00 23 1019.4
20260510215203 60 358 2.0 9.0 0.00 0.00 0.00 24 1019.4
20260510214704 60 54 2.0 9.0 0.00 0.00 0.00 23 1019.3
20260510214203 61 27 1.0 9.0 0.00 0.00 0.00 22 1019.3
20260510213702 61 24 1.0 9.0 0.00 0.00 0.00 25 1019.4
20260510213203 61 28 2.0 9.0 0.00 0.00 0.00 26 1019.3
20260510212702 61 39 1.0 9.0 0.00 0.00 0.00 23 1019.3
20260510212204 61 56 3.0 9.0 0.00 0.00 0.00 22 1019.5
20260510211203 61 48 1.0 9.0 0.00 0.00 0.00 27 1019.2
20260510210703 61 30 1.0 15.0 0.00 0.00 0.00 23 1019.3
20260510205703 61 33 4.0 15.0 0.00 0.00 0.00 22 1019.2
20260510205203 61 34 2.0 12.0 0.00 0.00 0.00 23 1019.3
20260510204702 61 55 3.0 17.0 0.00 0.00 0.00 26 1019.3
20260510204203 61 55 2.0 17.0 0.00 0.00 0.00 24 1019.3
20260510203703 61 356 2.0 17.0 0.00 0.00 0.00 24 1019.3
20260510202703 61 36 4.0 14.0 0.00 0.00 0.00 24 1019.4
20260510202203 61 31 3.0 14.0 0.00 0.00 0.00 25 1019.4
20260510201202 61 93 1.0 8.0 0.00 0.00 0.00 24 1019.3
20260510200703 61 18 1.0 9.0 0.00 0.00 0.00 27 1019.3
20260510195703 61 4 2.0 12.0 0.00 0.00 0.00 26 1019.3
20260510195203 61 1 2.0 12.0 0.00 0.00 0.00 27 1019.3
20260510194703 61 234 2.0 8.0 0.00 0.00 0.00 28 1019.3
20260510193703 60 19 4.0 10.0 0.00 0.00 0.00 26 1019.4
20260510193203 60 23 0.0 12.0 0.00 0.00 0.00 29 1019.4
20260510192703 60 11 3.0 12.0 0.00 0.00 0.00 27 1019.5
20260510192203 61 23 3.0 14.0 0.00 0.00 0.00 28 1019.4
20260510191703 60 54 2.0 14.0 0.00 0.00 0.00 30 1019.3
20260510191202 60 43 4.0 12.0 0.00 0.00 0.00 27 1019.3
20260510190703 60 354 2.0 16.0 0.00 0.00 0.00 29 1019.4
20260510190203 60 1 2.0 16.0 0.00 0.00 0.00 29 1019.3
20260510185703 60 15 4.0 13.0 0.00 0.00 0.00 29 1019.3
20260510185203 59 26 2.0 12.0 0.00 0.00 0.00 32 1019.2
20260510184702 58 22 4.0 12.0 0.00 0.00 0.00 29 1019.3
20260510184203 59 43 1.0 12.0 0.00 0.00 0.00 29 1019.3
20260510183703 59 39 4.0 12.0 0.00 0.00 0.00 28 1019.3
20260510183202 59 39 1.0 9.0 0.00 0.00 0.00 33 1019.3
20260510182703 59 352 0.0 9.0 0.00 0.00 0.00 32 1019.5
20260510182203 59 10 3.0 9.0 0.00 0.00 0.00 31 1019.4
20260510181703 58 19 2.0 12.0 0.00 0.00 0.00 30 1019.5
20260510181203 58 300 1.0 12.0 0.00 0.00 0.00 33 1019.4
20260510180703 58 0 3.0 13.0 0.00 0.00 0.00 32 1019.5
20260510180203 57 6 2.0 13.0 0.00 0.00 0.00 33 1019.4
20260510175703 57 18 4.0 12.0 0.00 0.00 0.00 31 1019.5
20260510173703 57 36 2.0 9.0 0.00 0.00 0.00 33 1019.3
20260510172703 56 27 2.0 13.0 0.00 0.00 0.00 34 1019.5
20260510172203 56 297 0.0 13.0 0.00 0.00 0.00 33 1019.4
20260510171703 56 38 2.0 13.0 0.00 0.00 0.00 34 1019.4
20260510171204 56 339 1.0 13.0 0.00 0.00 0.00 35 1019.5
20260510170703 55 21 1.0 13.0 0.00 0.00 0.00 37 1019.4
20260510170203 55 27 4.0 12.0 0.00 0.00 0.00 34 1019.6
20260510165703 55 37 3.0 12.0 0.00 0.00 0.00 34 1019.5
20260510165203 55 45 2.0 8.0 0.00 0.00 0.00 34 1019.6
20260510164704 55 355 0.0 12.0 0.00 0.00 0.00 37 1019.5
20260510163703 55 14 4.0 17.0 0.00 0.00 0.00 36 1019.6
20260510163204 55 27 2.0 14.0 0.00 0.00 0.00 38 1019.6
20260510162703 55 25 2.0 9.0 0.00 0.00 0.00 43 1019.6
20260510162203 54 30 0.0 9.0 0.00 0.00 0.00 41 1019.5
20260510161703 54 317 0.0 9.0 0.00 0.00 0.00 40 1019.5
20260510160703 54 20 1.0 8.0 0.00 0.00 0.00 39 1019.4
20260510160203 54 16 2.0 8.0 0.00 0.00 0.00 39 1019.3
20260510155703 54 347 1.0 10.0 0.00 0.00 0.00 40 1019.3
20260510155203 54 28 3.0 10.0 0.00 0.00 0.00 38 1019.3
20260510154703 54 66 0.0 7.0 0.00 0.00 0.00 44 1019.3
20260510154203 54 13 0.0 9.0 0.00 0.00 0.00 41 1019.2
20260510153703 53 12 2.0 12.0 0.00 0.00 0.00 39 1019.3
20260510153203 53 95 0.0 12.0 0.00 0.00 0.00 43 1019.2
20260510152703 53 34 2.0 12.0 0.00 0.00 0.00 40 1019.3
20260510152203 53 56 2.0 12.0 0.00 0.00 0.00 39 1019.2
20260510151703 53 36 3.0 12.0 0.00 0.00 0.00 39 1019.2
20260510150703 52 44 2.0 9.0 0.00 0.00 0.00 40 1019.2
20260510145703 52 32 1.0 9.0 0.00 0.00 0.00 41 1019.2
20260510145203 52 49 0.0 9.0 0.00 0.00 0.00 44 1019.2
20260510144704 52 44 0.0 7.0 0.00 0.00 0.00 45 1019.1
20260510144204 51 25 1.0 7.0 0.00 0.00 0.00 44 1019.2
20260510142703 51 0 0.0 10.0 0.00 0.00 0.00 46 1019.2
20260510141203 50 31 3.0 10.0 0.00 0.00 0.00 46 1018.9
20260510140704 50 29 1.0 6.0 0.00 0.00 0.00 46 1018.8
20260510140204 50 52 1.0 6.0 0.00 0.00 0.00 46 1018.9
20260510135704 49 97 1.0 12.0 0.00 0.00 0.00 48 1018.9
20260510135204 49 26 1.0 12.0 0.00 0.00 0.00 47 1018.9
20260510134703 49 44 2.0 7.0 0.00 0.00 0.00 47 1018.8
20260510134203 49 52 0.0 3.0 0.00 0.00 0.00 49 1018.8
20260510133703 48 50 0.0 3.0 0.00 0.00 0.00 50 1018.8
20260510133203 48 49 0.0 3.0 0.00 0.00 0.00 50 1018.7
20260510132703 48 5 0.0 0.0 0.00 0.00 0.00 53 1018.7
20260510132203 47 4 0.0 0.0 0.00 0.00 0.00 52 1018.6
20260510131703 47 4 0.0 0.0 0.00 0.00 0.00 51 1018.6
20260510131203 47 4 0.0 0.0 0.00 0.00 0.00 52 1018.6
20260510130703 47 4 0.0 0.0 0.00 0.00 0.00 54 1018.6
20260510130203 47 4 0.0 0.0 0.00 0.00 0.00 52 1018.6
20260510125703 47 4 0.0 0.0 0.00 0.00 0.00 51 1018.6
20260510125203 47 4 0.0 3.0 0.00 0.00 0.00 51 1018.5
20260510124704 46 4 1.0 3.0 0.00 0.00 0.00 52 1018.4
20260510123703 46 4 0.0 0.0 0.00 0.00 0.00 53 1018.3
20260510123203 46 4 0.0 0.0 0.00 0.00 0.00 53 1018.2
20260510122703 46 4 0.0 0.0 0.00 0.00 0.00 54 1018.2
20260510121703 45 4 0.0 0.0 0.00 0.00 0.00 55 1018.1
20260510121203 45 4 0.0 0.0 0.00 0.00 0.00 57 1018.1
20260510120703 45 4 0.0 2.0 0.00 0.00 0.00 55 1018.0
20260510120204 45 3 0.0 2.0 0.00 0.00 0.00 57 1018.0
20260510115703 45 2 0.0 3.0 0.00 0.00 0.00 56 1017.9
20260510114704 45 2 0.0 1.0 0.00 0.00 0.00 55 1017.7
20260510114204 45 0 0.0 2.0 0.00 0.00 0.00 57 1017.7
20260510113703 45 0 0.0 2.0 0.00 0.00 0.00 56 1017.6
20260510113204 45 0 0.0 2.0 0.00 0.00 0.00 55 1017.6
20260510112703 45 331 0.0 2.0 0.00 0.00 0.00 54 1017.5
20260510111704 45 325 0.0 0.0 0.00 0.00 0.00 54 1017.3
20260510111204 45 325 0.0 0.0 0.00 0.00 0.00 54 1017.2
20260510105704 44 325 0.0 0.0 0.00 0.00 0.00 56 1017.0
20260510105204 44 325 0.0 0.0 0.00 0.00 0.00 56 1016.9
20260510104703 44 325 0.0 0.0 0.00 0.00 0.00 56 1016.8
20260510104203 44 325 0.0 0.0 0.00 0.00 0.00 56 1016.8
20260510103704 44 325 0.0 0.0 0.00 0.00 0.00 56 1016.7
20260510102703 44 325 0.0 0.0 0.00 0.00 0.00 56 1016.6
20260510101704 44 325 0.0 0.0 0.00 0.00 0.00 55 1016.4
20260510101204 44 325 0.0 0.0 0.00 0.00 0.00 55 1016.4
20260510100703 44 325 0.0 0.0 0.00 0.00 0.00 55 1016.5
20260510100203 44 325 0.0 0.0 0.00 0.00 0.00 55 1016.4
20260510095704 44 325 0.0 1.0 0.00 0.00 0.00 55 1016.4
20260510095204 44 325 0.0 1.0 0.00 0.00 0.00 56 1016.3
20260510094703 44 324 0.0 0.0 0.00 0.00 0.00 56 1016.2
20260510094203 44 324 0.0 0.0 0.00 0.00 0.00 56 1016.1
20260510093704 44 324 0.0 0.0 0.00 0.00 0.00 56 1016.1
20260510093203 44 324 0.0 0.0 0.00 0.00 0.00 56 1015.9
20260510092703 44 324 0.0 0.0 0.00 0.00 0.00 55 1015.8
20260510092204 45 324 0.0 0.0 0.00 0.00 0.00 54 1015.9
20260510091703 45 324 0.0 0.0 0.00 0.00 0.00 54 1015.9
20260510091203 45 324 0.0 0.0 0.00 0.00 0.00 54 1015.8
20260510090704 45 324 0.0 0.0 0.00 0.00 0.00 54 1015.8
20260510090204 45 324 0.0 0.0 0.00 0.00 0.00 54 1015.8
20260510085703 45 324 0.0 0.0 0.00 0.00 0.00 54 1015.8
20260510085203 45 324 0.0 0.0 0.00 0.00 0.00 54 1015.8
20260510084704 45 324 0.0 0.0 0.00 0.00 0.00 54 1015.7
20260510084205 45 324 0.0 0.0 0.00 0.00 0.00 53 1015.5
20260510083703 45 324 0.0 0.0 0.00 0.00 0.00 53 1015.4
20260510083203 45 324 0.0 3.0 0.00 0.00 0.00 53 1015.3
20260510082703 45 324 0.0 3.0 0.00 0.00 0.00 53 1015.3
20260510082204 45 347 0.0 3.0 0.00 0.00 0.00 54 1015.3
20260510081704 45 348 0.0 0.0 0.00 0.00 0.00 53 1015.2
20260510081202 45 348 0.0 0.0 0.00 0.00 0.00 53 1015.2
20260510080703 45 348 0.0 0.0 0.00 0.00 0.00 52 1015.2
20260510080202 45 348 0.0 0.0 0.00 0.00 0.00 52 1015.2
20260510075702 45 348 0.0 0.0 0.00 0.00 0.00 52 1015.1
20260510075202 45 348 0.0 0.0 0.00 0.00 0.00 54 1015.1
20260510074702 45 348 0.0 0.0 0.00 0.00 0.00 53 1015.0
20260510074202 45 348 0.0 0.0 0.00 0.00 0.00 53 1015.0
20260510073702 45 348 0.0 0.0 0.00 0.00 0.00 53 1015.0
20260510073203 46 348 0.0 0.0 0.00 0.00 0.00 53 1015.0
20260510072203 46 348 0.0 0.0 0.00 0.00 0.00 51 1015.1
20260510071702 46 348 0.0 0.0 0.00 0.00 0.00 50 1015.1
20260510071202 46 348 0.0 0.0 0.00 0.00 0.00 50 1015.1
20260510070702 46 348 0.0 0.0 0.00 0.00 0.00 50 1015.2
20260510070202 46 348 0.0 0.0 0.00 0.00 0.00 49 1015.2
20260510065702 46 348 0.0 0.0 0.00 0.00 0.00 49 1015.0
20260510065202 46 348 0.0 0.0 0.00 0.00 0.00 48 1015.1
20260510064702 46 348 0.0 0.0 0.00 0.00 0.00 49 1015.1
20260510064202 47 348 0.0 0.0 0.00 0.00 0.00 48 1015.0
20260510063702 47 348 0.0 0.0 0.00 0.00 0.00 48 1015.0
20260510063202 47 348 0.0 0.0 0.00 0.00 0.00 48 1015.0
20260510062702 47 348 0.0 0.0 0.00 0.00 0.00 48 1015.0
20260510062203 47 348 0.0 0.0 0.00 0.00 0.00 47 1015.0
20260510061702 47 348 0.0 0.0 0.00 0.00 0.00 47 1015.0
20260510061203 47 348 0.0 0.0 0.00 0.00 0.00 46 1015.0
20260510060203 48 348 0.0 0.0 0.00 0.00 0.00 45 1015.0
20260510055703 48 348 0.0 0.0 0.00 0.00 0.00 45 1015.0
20260510055202 48 348 0.0 0.0 0.00 0.00 0.00 45 1014.9
20260510054203 48 348 0.0 0.0 0.00 0.00 0.00 44 1014.9
20260510053702 48 348 0.0 0.0 0.00 0.00 0.00 43 1014.9
20260510053203 48 348 0.0 0.0 0.00 0.00 0.00 43 1014.8
20260510052702 48 348 0.0 0.0 0.00 0.00 0.00 44 1014.8
20260510052202 48 348 0.0 0.0 0.00 0.00 0.00 44 1014.6
20260510051702 48 348 0.0 0.0 0.00 0.00 0.00 41 1014.6
20260510051202 48 348 0.0 0.0 0.00 0.00 0.00 41 1014.6
20260510050203 48 348 0.0 0.0 0.00 0.00 0.00 42 1014.6
20260510045202 49 348 0.0 0.0 0.00 0.00 0.00 41 1014.5
20260510044704 49 348 0.0 0.0 0.00 0.00 0.00 42 1014.5
20260510044202 49 348 0.0 0.0 0.00 0.00 0.00 41 1014.6
20260510043703 49 348 0.0 3.0 0.00 0.00 0.00 39 1014.6
20260510043203 49 348 0.0 3.0 0.00 0.00 0.00 39 1014.6
20260510042703 49 346 0.0 3.0 0.00 0.00 0.00 38 1014.6
20260510042203 49 345 0.0 3.0 0.00 0.00 0.00 38 1014.6
20260510041703 50 13 0.0 3.0 0.00 0.00 0.00 38 1014.6
20260510041203 50 13 0.0 3.0 0.00 0.00 0.00 37 1014.6
20260510040702 50 13 1.0 3.0 0.00 0.00 0.00 37 1014.6
20260510034702 51 0 0.0 3.0 0.00 0.00 0.00 36 1014.4
20260510033702 51 0 0.0 6.0 0.00 0.00 0.00 35 1014.2
20260510033202 51 0 0.0 5.0 0.00 0.00 0.00 35 1014.1
20260510032702 51 16 1.0 6.0 0.00 0.00 0.00 34 1014.1
20260510031703 51 6 1.0 6.0 0.00 0.00 0.00 34 1014.0
20260510031203 52 3 1.0 3.0 0.00 0.00 0.00 34 1013.9
20260510030702 52 359 0.0 3.0 0.00 0.00 0.00 33 1013.8
20260510030203 52 358 1.0 3.0 0.00 0.00 0.00 33 1013.7
20260510025702 52 358 0.0 6.0 0.00 0.00 0.00 33 1013.7
20260510025203 52 357 1.0 7.0 0.00 0.00 0.00 33 1013.6
20260510024702 52 25 0.0 7.0 0.00 0.00 0.00 33 1013.5
20260510024203 53 22 2.0 6.0 0.00 0.00 0.00 32 1013.4
20260510023703 53 2 2.0 9.0 0.00 0.00 0.00 32 1013.3
20260510023202 53 35 1.0 9.0 0.00 0.00 0.00 32 1013.1
20260510022703 53 6 1.0 9.0 0.00 0.00 0.00 32 1013.0
20260510022203 53 9 2.0 6.0 0.00 0.00 0.00 31 1012.9
20260510021702 53 0 0.0 5.0 0.00 0.00 0.00 31 1012.8
20260510021202 53 13 1.0 9.0 0.00 0.00 0.00 31 1012.7
20260510020703 54 8 2.0 12.0 0.00 0.00 0.00 30 1012.7
20260510020203 54 18 2.0 12.0 0.00 0.00 0.00 30 1012.6
20260510015703 54 4 2.0 8.0 0.00 0.00 0.00 31 1012.5
20260510015202 54 19 0.0 12.0 0.00 0.00 0.00 30 1012.3
20260510014702 54 16 1.0 12.0 0.00 0.00 0.00 30 1012.2
20260510013703 55 4 1.0 9.0 0.00 0.00 0.00 29 1012.0
20260510013204 55 359 2.0 9.0 0.00 0.00 0.00 28 1011.9
20260510012703 55 33 5.0 9.0 0.00 0.00 0.00 28 1011.9
20260510011702 55 16 4.0 13.0 0.00 0.00 0.00 28 1011.8
20260510011203 56 18 3.0 10.0 0.00 0.00 0.00 28 1011.7
20260510010203 56 14 2.0 12.0 0.00 0.00 0.00 27 1011.5
20260510005202 56 10 3.0 12.0 0.00 0.00 0.00 27 1011.4
20260510004702 57 10 3.0 16.0 0.00 0.00 0.00 26 1011.4
20260510004204 57 10 4.0 16.0 0.00 0.00 0.00 26 1011.3
20260510003703 57 25 5.0 14.0 0.00 0.00 0.00 26 1011.2
20260510002702 57 17 7.0 20.0 0.00 0.00 0.00 25 1011.1
20260510002202 57 34 2.0 13.0 0.00 0.00 0.00 26 1011.1
20260510001203 58 2 4.0 13.0 0.00 0.00 0.00 25 1011.1
20260510000702 58 4 2.0 12.0 0.00 0.00 0.00 25 1011.0
20260510000204 58 0 2.0 12.0 0.00 0.00 0.00 25 1010.9
20260509235702 58 9 2.0 12.0 0.00 0.00 0.00 25 1010.7
20260509235202 58 10 1.0 20.0 0.00 0.00 0.00 25 1010.7
20260509234702 59 22 7.0 20.0 0.00 0.00 0.00 23 1010.7
20260509234204 59 25 3.0 15.0 0.00 0.00 0.00 24 1010.6
20260509233703 59 354 7.0 17.0 0.00 0.00 0.00 24 1010.6
20260509233203 59 25 4.0 17.0 0.00 0.00 0.00 24 1010.5
20260509232703 59 62 2.0 12.0 0.00 0.00 0.00 27 1010.5
20260509232203 59 54 1.0 21.0 0.00 0.00 0.00 26 1010.4
20260509231703 59 5 4.0 21.0 0.00 0.00 0.00 25 1010.5
20260509231204 59 5 5.0 21.0 0.00 0.00 0.00 24 1010.4
20260509230703 59 356 2.0 20.0 0.00 0.00 0.00 25 1010.3
20260509225703 59 358 3.0 16.0 0.00 0.00 0.00 24 1010.2
20260509225202 59 36 2.0 20.0 0.00 0.00 0.00 25 1010.2
20260509224703 59 26 7.0 20.0 0.00 0.00 0.00 22 1010.2
20260509224205 59 18 7.0 20.0 0.00 0.00 0.00 22 1010.0
20260509222703 60 61 3.0 14.0 0.00 0.00 0.00 25 1009.9
20260509222203 60 36 3.0 18.0 0.00 0.00 0.00 24 1009.9
20260509221703 60 47 5.0 18.0 0.00 0.00 0.00 22 1009.9